Skip Page Navigation
NASA JPL Caltech
NASA Logo - Jet Propulsion Laboratory + View the NASA Portal
+ Center for Near-Earth Object Studies
JPL Home Earth Solar System Stars & Galaxies Technology
JPL Solar System Dynamics
BODIES ORBITS EPHEMERIDES TOOLS PHYSICAL DATA DISCOVERY FAQ SITE MAP
JPL Small-Body Database Browser
Search: [ help ]  
442094 (2010 TA34)
Classification: Main-belt Asteroid          SPK-ID: 2442094
Ephemeris | Orbit Diagram | Orbital Elements | Mission Design | Physical Parameters | Discovery Circumstances | Close-Approach Data ]

[ show orbit diagram ]
Orbital Elements at Epoch 2459000.5 (2020-May-31.0) TDB
Reference: JPL 11 (heliocentric ecliptic J2000)
 Element Value Uncertainty (1-sigma)   Units 
e .1212697120182348 6.5372e-08  
a 3.119954986887973 6.7549e-08 au
q 2.741598944118214 2.079e-07 au
i 8.941892893920578 8.91e-06 deg
node 36.00502199722733 5.4786e-05 deg
peri 42.57296628993036 6.9337e-05 deg
M 226.784510810564 4.7522e-05 deg
tp 2459745.357409784743
(2022-Jun-14.85740978)
0.00027833 TDB
period 2012.894064752431
5.51
6.5371e-05
1.79e-07
d
yr
n .1788469678081529 5.8082e-09 deg/d
Q 3.498311029657734 7.5741e-08 au
  Orbit Determination Parameters
   # obs. used (total)      84  
   data-arc span      4463 days (12.22 yr)  
   first obs. used      2007-03-14  
   last obs. used      2019-06-02  
   planetary ephem.      DE431  
   SB-pert. ephem.      SB431-N16  
   condition code      0  
   norm. resid. RMS      .58014  
   source      ORB  
   producer      Otto Matic  
   solution date      2019-Sep-24 07:42:44  

Additional Information
 Earth MOID = 1.76459 au 
 Jupiter MOID = 1.83845 au 
 T_jup = 3.186 
[ show covariance matrix ]

Ephemeris | Orbit Diagram | Orbital Elements | Mission Design | Physical Parameters | Discovery Circumstances | Close-Approach Data ]

Physical Parameter Table
Parameter Symbol Value Units Sigma Reference Notes
absolute magnitude H 16.6   n/a MPO440830  

442094 (2010 TA34)          Discovered 2007-Mar-14 by Mt. Lemmon Survey at Mount Lemmon
Reference: Last Updated: 2015-09-02

[ show close-approach data ]
Alternate Designations
 2010 TA34 = 2007 ES207 
Ephemeris | Orbit Diagram | Orbital Elements | Mission Design | Physical Parameters | Discovery Circumstances | Close-Approach Data ]
ABOUT SSD CREDITS/AWARDS PRIVACY/COPYRIGHT GLOSSARY LINKS
FirstGov 2020-Aug-04 01:03 UT
(server date/time)  
NASA Home Page
Site Manager:   Ryan S. Park
Webmaster  Alan B. Chamberlin